Regional Weather Roundup
Issued by NWS

Home | Current Version | Previous Version | Text Only | Print | Product List | Glossary Off
Versions: 1 2 3 4 5 6 7 8 9 10 11 12 13 14 15 16 17 18 19 20 21 22 23 24 25 26 27 28 29 30 31 32 33 34 35 36 37 38 39 40 41 42 43 44 45 46 47 48 49 50

000
ASUS43 KMKX 211220
RWRWI

WISCONSIN REGIONAL WEATHER ROUNDUP
NATIONAL WEATHER SERVICE MILWAUKEE/SULLIVAN WI
700 AM CDT MON MAY 21 2018

NOTE: "FAIR" INDICATES FEW OR NO CLOUDS BELOW 12,000 FEET WITH NO
SIGNIFICANT WEATHER AND/OR OBSTRUCTIONS TO VISIBILITY.

WIZ001-002-006>008-014>016-023>028-211300-
NORTHWEST WISCONSIN

CITY           SKY/WX    TMP DP  RH WIND       PRES   REMARKS
SUPERIOR ARPT  FAIR      40  39  96 CALM      30.17F
6HR MIN TEMP:  32; 6HR MAX TEMP:  37;

ASHLAND        FAIR      47  41  80 CALM      30.19S
6HR MIN TEMP:  33; 6HR MAX TEMP:  47;

HAYWARD        FAIR      45  41  86 N6        30.18F
6HR MIN TEMP:  37; 6HR MAX TEMP:  45;

SIREN          PTSUNNY   44  39  83 CALM      30.15S
6HR MIN TEMP:  38; 6HR MAX TEMP:  44;

CUMBERLAND     PTSUNNY   48  41  76 E5        30.15F
RICE LAKE      FAIR      51  40  67 NE3       30.17S
6HR MIN TEMP:  42; 6HR MAX TEMP:  49;

CHETEK         PTSUNNY   50  41  70 E5        30.16S
6HR MIN TEMP:  43; 6HR MAX TEMP:  49;

LADYSMITH      FAIR      49  35  57 E6        30.18F
6HR MIN TEMP:  41; 6HR MAX TEMP:  47;

EAU CLAIRE     CLOUDY    51  42  71 E10       30.13F
6HR MIN TEMP:  45; 6HR MAX TEMP:  51;

MENOMONIE      PTSUNNY   55  43  64 E9        30.13S
6HR MIN TEMP:  52; 6HR MAX TEMP:  55;

NEW RICHMOND   CLOUDY    55  44  65 E6        30.13S
6HR MIN TEMP:  48; 6HR MAX TEMP:  55;

OSCEOLA        CLOUDY    55  45  70 E5        30.15F
6HR MIN TEMP:  45; 6HR MAX TEMP:  54;

$$

WIZ003>005-009-010-017-018-211300-
NORTH CENTRAL WISCONSIN

CITY           SKY/WX    TMP DP  RH WIND       PRES   REMARKS
MANITOWISH WTR FAIR      48  39  72 CALM      30.20S
6HR MIN TEMP:  33; 6HR MAX TEMP:  48;

ARBOR VITAE    FAIR      48  42  80 CALM      30.20S
6HR MIN TEMP:  37; 6HR MAX TEMP:  47;

WOODRUFF       FAIR      48  42  80 CALM      30.20S
6HR MIN TEMP:  37; 6HR MAX TEMP:  47;

RHINELANDER    FAIR      45  40  82 CALM      30.20F
6HR MIN TEMP:  35; 6HR MAX TEMP:  45;

EAGLE RIVER    FAIR      44  42  91 CALM      30.20S
6HR MIN TEMP:  32; 6HR MAX TEMP:  42;

LAND O LAKES   FAIR      44  39  82 CALM      30.22F
6HR MIN TEMP:  32; 6HR MAX TEMP:  39;

PHILLIPS       FAIR      43  38  84 CALM      30.18S
6HR MIN TEMP:  34; 6HR MAX TEMP:  42;

TOMAHAWK       FAIR      40  38  95 CALM      30.19S
6HR MIN TEMP:  31; 6HR MAX TEMP:  39;

MEDFORD        FAIR      44  35  71 E5        30.16S
6HR MIN TEMP:  36; 6HR MAX TEMP:  47;

MERRILL        FAIR      42  37  80 CALM      30.19S
6HR MIN TEMP:  33; 6HR MAX TEMP:  40;

$$

WIZ029-030-035-036-043>047-211300-
CENTRAL WISCONSIN

CITY           SKY/WX    TMP DP  RH WIND       PRES   REMARKS
WAUSAU         FAIR      47  34  60 CALM      30.16F
6HR MIN TEMP:  39; 6HR MAX TEMP:  48;

MOSINEE        PTSUNNY   43  34  70 NE7       30.18S
MARSHFIELD     FAIR      47  36  65 E8        30.15S
6HR MIN TEMP:  43; 6HR MAX TEMP:  48;

STEVENS POINT  NOT AVBL
WAUPACA        FAIR      49  37  65 NE3       30.18S
6HR MIN TEMP:  39; 6HR MAX TEMP:  47;

WAUTOMA        FAIR      46  36  68 NE6       30.17S
6HR MIN TEMP:  41; 6HR MAX TEMP:  46;

WISC RAPIDS    FAIR      48  31  51 NE6       30.16S
6HR MIN TEMP:  42; 6HR MAX TEMP:  50;

CAMP DOUGLAS   PTSUNNY   48  43  81 E3        30.14S
$$

WIZ011>013-019>022-031-037>040-048>050-211300-
NORTHEAST WISCONSIN

CITY           SKY/WX    TMP DP  RH WIND       PRES   REMARKS
ANTIGO         FAIR      47  34  62 E6        30.19S
6HR MIN TEMP:  33; 6HR MAX TEMP:  40;

SHAWANO        FAIR      50  40  68 E7        30.19S
6HR MIN TEMP:  38; 6HR MAX TEMP:  50;

OCONTO         FAIR      44  38  80 NE5       30.19F
6HR MIN TEMP:  32; 6HR MAX TEMP:  44;

STURGEON BAY   FAIR      47  33  58 E8        30.21F
6HR MIN TEMP:  38; 6HR MAX TEMP:  47;

GREEN BAY        N/A     48  42  80 NE6       30.18F
6HR MIN TEMP:  38; 6HR MAX TEMP:  48;

MANITOWOC      FAIR      43  39  86 CALM      30.20S
6HR MIN TEMP:  39; 6HR MAX TEMP:  43;

APPLETON       PTSUNNY   46  32  57 NE8       30.16S
CLINTONVILLE   FAIR      47  38  71 NE6       30.18S
6HR MIN TEMP:  38; 6HR MAX TEMP:  45;

OSHKOSH        FAIR      53  45  74 E8        30.16S
6HR MIN TEMP:  45; 6HR MAX TEMP:  53;

$$

WIZ032>034-041-042-053>061-211300-
SOUTHWEST WISCONSIN

CITY           SKY/WX    TMP DP  RH WIND       PRES   REMARKS
LA CROSSE      PTSUNNY   57  46  66 E3        30.11F
6HR MIN TEMP:  57; 6HR MAX TEMP:  58;

SPARTA         CLOUDY    52  44  74 E6        30.14S
6HR MIN TEMP:  47; 6HR MAX TEMP:  52;

VIROQUA        CLOUDY    52  44  75 E7        30.12S
6HR MIN TEMP:  51; 6HR MAX TEMP:  53;

BOSCOBEL       CLOUDY    54  46  74 VRB3      30.11F
6HR MIN TEMP:  53; 6HR MAX TEMP:  56; 6HR PCP:  0.01;

PRAIRIE DU CHI RAIN      51  48  89 CALM      30.11S
6HR MIN TEMP:  51; 6HR MAX TEMP:  57; 6HR PCP:  0.25;

PLATTEVILLE    CLOUDY    51  51 100 E9        30.11S
6HR MIN TEMP:  51; 6HR MAX TEMP:  52; 6HR PCP:  0.06;

$$

WIZ056-057-062-063-064-067-068-211300-
SOUTH CENTRAL WISCONSIN

CITY           SKY/WX    TMP DP  RH WIND       PRES   REMARKS
REEDSBURG      CLOUDY    50  40  67 E3        30.14R
6HR MIN TEMP:  49; 6HR MAX TEMP:  52;

BARABOO/DELLS  CLOUDY    49  39  67 E5        30.14S
6HR MIN TEMP:  48; 6HR MAX TEMP:  51;

LONE ROCK      CLOUDY    54  45  71 E6        30.13S
6HR MIN TEMP:  53; 6HR MAX TEMP:  54;

MINERAL POINT  RAIN      52  50  93 E9        30.12R
MADISON        LGT RAIN  50  44  80 E7        30.14R
6HR MIN TEMP:  50; 6HR MAX TEMP:  51; 6HR PCP: TRACE;

MIDDLETON      CLOUDY    53  45  76 E6        30.14S
6HR MIN TEMP:  51; 6HR MAX TEMP:  55;

WATERTOWN      CLOUDY    50  48  92 E6        30.16R
6HR MIN TEMP:  46; 6HR MAX TEMP:  50;

MONROE         DRIZZLE   48  46  93 E9        30.12R
JANESVILLE     RAIN      52  52 100 E8        30.14R
$$

WIZ051-052-058>065-066-070>072-211300-
SOUTHEAST WISCONSIN

CITY           SKY/WX    TMP DP  RH WIND       PRES   REMARKS
MILWAUKEE      LGT RAIN  49  47  93 NE5       30.17S
6HR MIN TEMP:  45; 6HR MAX TEMP:  48; 6HR PCP: TRACE;

WAUKESHA       CLOUDY    46  41  81 CALM      30.18R
MILWAUKEE/TIMM CLOUDY    46  41  81 NE3       30.18S
RACINE         LGT RAIN  48  46  93 NE6       30.18R
6HR MIN TEMP:  44; 6HR MAX TEMP:  48; 6HR PCP: TRACE;

BURLINGTON     RAIN      48  46  91 E5        30.16R
6HR MIN TEMP:  44; 6HR MAX TEMP:  48;

KENOSHA        RAIN      50  47  89 E5        30.16R FOG
6HR MIN TEMP:  44; 6HR MAX TEMP:  50; 6HR PCP: TRACE;

FOND DU LAC    FAIR      50  42  74 CALM      30.16S
6HR MIN TEMP:  43; 6HR MAX TEMP:  50;

SHEBOYGAN      FAIR      45  42  89 NE5       30.18S
6HR MIN TEMP:  39; 6HR MAX TEMP:  45;

WEST BEND      CLOUDY    46  43  87 E6        30.17F
JUNEAU         PTSUNNY   50  43  77 E3        30.16S
6HR MIN TEMP:  46; 6HR MAX TEMP:  50;

$$

LSZ147-162-211300-
LAKE SUPERIOR

STATION/POSITION TIME  TEMP    WIND        PRES    WAVE
                       AIR SEA DIR/SP/G            HT/PER
                 (UTC) (F)     (DEG/KT/KT) (MB)    (FT/S)
W MID LAKE BUOY  1150   45 35  200/  4/  4 1022.6F   0
DEVILS ISLAND    1200   46     290/  1/  2 1022.5R
SAXON HARBOR     1140   47      CALM  /  2 1021.3S
$$

LMZ867-665-643>646-211300-
LAKE MICHIGAN

STATION/POSITION TIME  TEMP    WIND        PRES    WAVE
                       AIR SEA DIR/SP/G            HT/PER
                 (UTC) (F



USA.gov is the U.S. government's official web portal to all federal, state and local government web resources and services.